Location: �chenoz-la-M�line
(47.6009°N, 6.1354°E)
Time: 07:34:59
(UTC+00:00)

Cosmos 2034 Rocket - Visible Passes

Search period start: 09 May 2021 00:00
Search period end: 19 May 2021 00:00
Orbit: 959 x 999 km, 82.9° (Epoch: 08 May)

Date Brightness Start Highest point End Pass type
(mag) Time Alt. Az. Time Alt. Az. Time Alt. Az.
09 May 5.6 02:50:42 10° N 02:56:37 38° ENE 03:02:26 10° SE visible
10 May 6.9 01:33:54 10° NNE 01:36:30 12° NE 01:39:05 10° E visible
10 May 4.6 03:17:01 10° N 03:23:23 64° ENE 03:29:38 10° SSE visible
11 May 6.5 01:59:00 10° NNE 02:03:43 21° ENE 02:08:24 10° ESE visible
12 May 5.7 02:24:56 10° N 02:30:44 35° ENE 02:36:26 10° SE visible
13 May 6.9 01:08:34 10° NE 01:10:32 11° NE 01:12:30 10° ENE visible
13 May 4.7 02:51:13 10° N 02:57:31 59° ENE 03:03:43 10° SSE visible
14 May 6.5 01:33:19 10° NNE 01:37:48 20° ENE 01:42:14 10° ESE visible
14 May 4.1 03:17:43 10° N 03:24:07 83° W 03:30:25 10° S visible
15 May 5.8 01:59:11 10° N 02:04:50 32° ENE 02:10:24 10° SE visible
16 May 7.0 00:43:37 10° NE 00:44:34 10° NE 00:45:31 10° ENE visible
16 May 4.8 02:25:25 10° N 02:31:39 54° ENE 02:37:48 10° SSE visible
17 May 6.5 01:07:40 10° NNE 01:11:52 18° ENE 01:16:02 10° ESE visible
17 May 4.1 02:51:53 10° N 02:58:16 89° W 03:04:34 10° S visible
18 May 5.8 01:33:26 10° N 01:38:56 30° ENE 01:44:21 10° SE visible
